Overview Statistics Trail Chart Weather Telemetry Raw packets
 

This is the latest recevied weather packets stored in our database for station/object JF7BTK-10. If no packets are shown the sender has not sent any weather packets the latest 10 day(s).

<< 4 5 6 7 8 9 10 >>
Time Temp. Humidity Pressure Rain* Wind** Luminosity Snow
1788598688 20° C 73% 1011 hPa 0 mm - - -
1788597787 21.11° C 72% 1011 hPa 0 mm - - -
1788596888 21.67° C 71% 1011.1 hPa 0 mm - - -
1788596450 21.67° C 71% 1010.9 hPa 0 mm - - -
1788595988 22.22° C 70% 1011 hPa 0 mm - - -
1788595550 22.22° C 70% 1011 hPa 0 mm - - -
1788595087 22.22° C 65% 1011 hPa 0 mm - - -
1788594650 22.78° C 65% 1010.7 hPa 0 mm - - -
1788594186 23.33° C 64% 1010.9 hPa 0 mm - - -
1788593286 23.89° C 61% 1010.7 hPa 0 mm - - -
1788592551 25° C 61% 1010.5 hPa 0 mm - - -
1788592387 24.44° C 61% 1010.5 hPa 0 mm - - -
1788591951 24.44° C 61% 1010.4 hPa 0 mm - - -
1788591651 24.44° C 60% 1010.4 hPa 0 mm - - -
1788591488 24.44° C 59% 1010.4 hPa 0 mm - - -
1788591352 25° C 57% 1010.4 hPa 0 mm - - -
1788591056 26.11° C 55% 1010.4 hPa 0 mm - - -
1788590588 25.56° C 60% 1010.3 hPa 0 mm - - -
1788590151 24.44° C 62% 1010.2 hPa 0 mm - - -
1788589686 23.33° C 63% 1010.2 hPa 0 mm - - -
1788589551 23.33° C 62% 1010.2 hPa 0 mm - - -
1788588951 23.89° C 61% 1010.1 hPa 0 mm - - -
1788588786 23.89° C 60% 1010.1 hPa 0 mm - - -
1788588651 23.89° C 60% 1010 hPa 0 mm - - -
1788588351 24.44° C 56% 1010 hPa 0 mm - - -

* Rain latest hour (hover to see other rain measurements)
** Current wind speed in m/s (hover to see current wind gust speed)